EHI
0 0 0 1 7 18 27 32 32 36 44 38 19 5 1 0 0 0 0 0 0 0 0 0 0 0 0 0 0 0 0 0 0 0 0 0 0 0 0 0 0 0 0
0 1 2 5 14 28 43 54 58 59 62 53 31 11 2 0 0 0 0 0 0 0 0 0 0 0 0 0 0 0 0 0 0 0 0 0 0 0 0 0 0 0 0
2 6 12 21 32 48 69 83 86 85 81 72 52 25 7 1 0 0 0 0 0 0 0 0 0 0 0 0 0 0 0 0 0 0 0 0 0 0 0 0 0 0 0
7 18 35 49 59 73 88 95 95 93 87 77 62 38 14 2 0 0 0 0 0 0 0 0 0 0 0 0 0 0 0 0 0 0 0 0 0 0 0 0 0 0 0
17 34 59 75 85 91 94 90 83 77 69 59 49 33 12 2 0 0 0 0 0 0 0 0 0 0 0 0 0 0 0 0 0 0 0 0 0 0 0 0 0 0 0
30 46 66 80 87 87 80 67 54 43 34 29 24 15 6 1 0 0 0 0 0 0 0 0 0 0 0 0 0 0 0 0 0 0 0 0 0 0 0 0 0 0 0
37 45 54 60 64 62 52 36 23 12 8 7 5 3 1 0 0 0 0 0 0 0 0 0 0 0 0 0 0 0 0 0 0 0 0 0 0 0 0 0 0 0 0
30 34 36 36 36 35 28 16 6 2 0 0 0 0 0 0 0 0 0 0 0 0 0 0 0 0 0 0 0 0 0 0 0 0 0 0 0 0 0 0 0 0 0
14 17 19 19 18 16 13 7 2 0 0 0 0 0 0 0 0 0 0 0 0 0 0 0 0 0 0 0 0 0 0 0 0 0 0 0 0 0 0 0 0 0 0
3 5 7 7 6 5 4 3 1 0 0 0 0 0 0 0 0 0 0 0 0 0 0 0 0 0 0 0 0 0 0 0 0 0 0 0 0 0 0 0 0 0 0
0 0 1 1 1 0 0 0 0 0 0 0 0 0 0 0 0 0 0 0 0 0 0 0 0 0 0 0 0 0 0 0 0 0 0 0 0 0 0 0 0 0 0
0 0 0 0 0 0 0 0 1 1 1 1 0 0 0 0 0 0 0 0 0 0 0 0 0 0 0 0 0 0 0 0 0 0 0 0 0 0 0 0 0 0 0
0 0 0 0 0 0 1 2 4 5 4 3 2 2 1 0 0 0 0 0 0 0 0 0 0 0 0 0 0 0 0 0 0 0 0 0 0 0 0 0 0 0 0
0 0 0 0 0 0 2 4 7 9 10 8 6 4 1 0 0 0 0 0 0 0 0 0 0 0 0 0 0 0 0 0 0 0 0 0 0 0 0 0 0 0 0
0 0 0 0 0 0 1 3 5 9 12 13 11 7 3 1 0 0 0 0 0 0 0 0 0 0 0 0 0 0 0 0 0 0 0 0 0 0 0 0 0 0 0
0 0 0 0 0 0 0 1 2 4 7 9 9 6 3 1 0 0 0 0 0 0 0 0 0 0 0 0 0 0 0 0 0 0 0 0 0 0 0 0 0 0 0
0 0 0 0 0 0 0 0 0 1 2 3 3 2 1 0 0 0 0 0 0 0 0 0 0 0 0 0 0 0 0 0 0 0 0 0 0 0 0 0 0 0 0
0 0 0 0 0 0 0 0 0 0 0 0 0 0 0 0 0 0 0 0 0 0 0 0 0 0 0 0 0 0 0 0 0 0 0 0 0 0 0 0 0 0 0
0 0 0 0 0 0 0 0 0 0 0 0 0 0 0 0 0 0 0 0 0 0 0 0 0 0 0 0 0 0 0 0 0 0 0 0 0 0 0 0 0 0 0
0 0 0 0 0 0 0 0 0 0 0 0 0 0 0 0 0 0 0 0 0 0 0 0 0 0 0 0 0 0 0 0 0 0 0 0 0 0 0 0 0 0 0
0 0 0 0 0 0 0 0 0 0 0 0 0 0 0 0 0 0 0 0 0 0 0 0 0 0 0 0 0 0 0 0 0 0 0 0 0 0 0 0 0 0 0
0 0 0 0 0 0 0 0 0 0 0 0 0 0 0 0 0 0 0 0 0 0 0 0 0 0 0 0 0 0 0 0 0 0 0 0 0 0 0 0 0 0 0
0 0 0 0 0 0 0 0 0 0 0 0 0 0 0 0 0 0 0 0 0 0 0 0 0 0 0 0 0 0 0 0 0 0 0 0 0 0 0 0 0 0 0
0 0 0 0 0 0 0 0 0 0 0 0 0 0 0 0 0 0 0 0 0 0 0 0 0 0 0 0 0 0 0 0 0 0 0 0 0 0 0 0 0 0 0
0 0 0 0 0 0 0 0 0 0 0 0 0 0 0 0 0 0 0 0 0 0 0 0 0 0 0 0 0 0 0 0 0 0 0 0 0 0 0 0 0 0 0
0 0 0 0 0 0 0 0 0 0 0 0 0 0 0 0 0 0 0 0 0 0 0 0 0 0 0 0 0 0 0 0 0 0 0 0 0 0 0 0 0 0 0
Wind_Speed
9 13 17 17 14 12 13 12 11 11 9 6 5 4 4 3 3 3 4 4 3 3 3 2 4 5 5 6 6 4 4 3 3 3 2 3 3 1 2 3 3 3 3
4 8 13 14 14 14 13 12 11 11 10 7 5 4 4 3 3 3 3 4 4 4 4 4 3 4 4 6 6 5 4 3 3 4 3 1 3 3 1 2 3 3 3
5 8 11 12 13 13 13 11 10 9 8 8 5 4 3 3 2 2 3 4 5 5 4 5 4 3 4 5 6 6 7 5 2 2 5 4 4 2 2 1 2 3 2
2 5 9 11 12 12 11 11 10 9 8 8 7 7 5 4 5 4 3 4 4 4 4 5 5 5 3 4 6 6 5 7 4 2 1 2 4 4 1 2 2 3 3
1 3 6 9 9 10 11 11 10 8 7 7 7 6 4 3 2 2 3 4 3 3 4 4 5 5 4 5 5 5 5 5 5 4 2 1 1 2 3 2 2 2 3
5 4 5 8 9 8 6 7 9 7 6 6 6 6 6 5 4 3 3 3 2 2 3 4 4 5 4 5 5 6 7 5 5 5 4 3 2 2 2 2 2 3 3
8 9 8 8 8 7 4 4 7 6 6 6 5 6 6 6 5 4 4 3 2 2 2 2 3 3 4 4 4 5 6 7 7 7 5 4 4 3 2 2 1 2 2
4 6 9 8 7 7 6 5 6 6 6 6 5 4 5 4 3 4 4 4 3 3 2 2 3 3 3 4 4 4 5 5 6 7 7 5 5 4 4 3 2 1 2
9 6 5 5 5 7 8 7 7 5 5 5 4 4 4 4 4 3 3 3 3 2 3 3 2 2 2 3 4 3 4 4 5 6 7 6 6 6 5 5 4 4 4
11 8 6 3 2 5 5 5 6 6 5 5 4 4 5 5 4 4 4 4 4 3 4 3 2 2 2 2 2 2 2 4 4 4 5 6 5 6 6 6 5 4 4
10 7 4 3 6 5 4 5 6 6 6 5 4 3 3 4 4 4 5 5 4 4 5 4 3 3 3 2 2 2 2 3 3 3 5 6 6 6 6 6 5 4 4
7 5 6 8 8 6 5 5 6 6 5 5 4 3 3 4 4 4 5 5 5 5 5 4 4 4 4 4 3 3 2 3 3 3 4 4 4 6 5 6 7 6 5
9 7 8 9 9 7 6 6 6 6 5 5 4 4 4 4 5 5 5 5 5 5 5 4 5 5 5 4 4 3 2 2 3 3 4 4 4 4 4 5 6 6 6
8 4 4 5 7 6 5 4 5 4 4 5 4 4 4 5 6 5 5 6 5 5 5 5 5 5 5 5 4 3 3 3 3 3 3 3 4 4 4 4 5 6 6
12 9 6 5 5 5 4 2 1 1 4 5 5 4 4 4 4 5 5 6 5 6 6 6 5 5 4 5 5 5 4 4 4 3 3 4 5 6 4 3 3 5 5
13 12 11 12 12 10 9 9 8 5 3 3 3 2 3 3 3 4 5 4 5 5 4 5 5 5 5 8 11 8 5 5 5 5 5 5 6 8 9 8 7 6 4
10 10 10 10 10 10 10 11 10 10 10 9 7 5 3 3 3 1 0 2 3 3 4 5 5 6 7 10 12 14 7 6 6 6 5 5 6 9 6 9 11 10 10
8 8 7 9 8 8 9 8 9 9 9 8 8 7 7 6 6 5 4 3 1 2 3 4 5 5 7 11 12 13 8 6 6 6 6 6 6 6 8 6 6 6 7
5 5 5 6 7 7 7 8 7 7 7 7 6 6 6 5 5 5 4 3 2 2 2 2 3 5 6 8 10 9 4 4 5 4 5 5 6 10 10 7 7 6 6
4 5 5 6 6 5 6 7 6 6 6 5 4 4 5 5 5 5 4 3 3 3 3 2 2 2 3 5 7 9 3 4 3 3 3 5 6 9 10 8 7 7 6
3 5 5 4 3 3 6 6 5 4 3 3 4 4 4 4 4 5 4 4 4 4 4 4 4 4 3 4 4 5 4 4 3 2 2 3 6 7 9 10 7 8 5
2 3 3 3 3 3 4 5 4 3 2 3 4 4 5 5 5 5 5 5 5 5 5 5 5 4 5 6 6 4 2 4 3 3 3 3 4 3 4 6 6 7 6
1 1 2 3 3 3 2 3 4 2 2 3 3 3 4 4 5 5 5 5 5 4 4 4 4 4 5 6 10 8 4 1 2 2 5 4 4 5 4 6 7 6 4
2 1 1 2 3 3 2 1 3 2 3 3 1 1 2 2 4 4 4 4 4 4 4 5 5 4 4 4 5 5 4 3 1 1 1 5 6 5 5 5 4 3 3
3 1 1 2 3 2 2 2 2 3 3 2 1 0 0 0 1 2 3 3 3 4 3 3 4 4 5 6 8 5 3 1 1 2 2 2 2 3 2 2 3 2 2
4 3 4 4 3 2 3 3 1 3 3 2 1 1 1 1 1 0 1 3 3 5 6 6 5 3 5 8 7 5 4 2 2 3 2 2 2 3 2 3 2 1 1
Wind_Direction
239 189 178 175 173 172 170 170 165 165 155 151 154 154 166 174 180 193 199 186 179 170 164 190 199 183 175 175 163 148 144 143 134 105 69 11 9 102 139 156 161 173 166
280 190 172 169 169 172 171 167 160 159 159 155 153 153 151 166 177 181 193 197 185 177 179 184 199 200 182 175 171 151 141 145 150 135 115 51 341 327 41 159 178 188 179
246 190 167 164 164 169 166 158 147 142 143 140 130 114 99 94 124 178 200 212 198 193 184 182 179 204 199 189 184 172 153 154 170 156 145 152 204 253 308 235 204 194 189
257 178 163 158 163 160 144 135 132 130 134 138 142 146 155 167 185 185 199 221 215 202 190 186 184 188 193 202 203 186 167 149 160 173 170 153 160 156 205 298 265 223 202
97 157 165 150 139 132 129 130 127 127 134 138 145 146 148 161 160 166 194 215 224 215 196 184 182 186 189 198 206 190 185 163 159 162 157 134 147 140 142 203 249 265 247
109 94 89 99 95 90 105 129 132 135 140 142 144 147 152 155 156 173 192 207 211 209 197 186 189 195 193 197 202 196 192 185 166 166 164 169 175 187 149 160 206 224 248
126 122 109 96 98 108 133 151 142 145 152 149 152 158 163 168 180 190 202 201 197 211 215 189 196 200 204 203 195 194 197 188 179 176 181 185 186 162 149 147 199 220 246
70 120 130 130 139 150 173 175 166 161 163 162 168 173 175 174 190 201 197 197 195 207 201 187 193 198 202 203 199 201 200 195 193 193 188 187 192 180 167 159 164 201 248
8 38 70 100 144 170 183 180 172 172 176 177 181 193 199 194 200 200 187 178 177 182 179 176 181 182 183 195 195 205 207 195 201 204 201 199 198 192 184 167 165 177 206
4 18 33 21 222 202 184 173 174 184 187 188 194 201 202 194 184 169 171 172 174 169 166 181 199 196 174 161 170 185 192 192 204 205 206 209 207 200 194 180 172 179 194
343 353 352 286 251 234 198 182 185 187 189 187 188 178 171 163 159 166 179 180 180 178 182 190 199 202 197 183 171 176 175 194 210 212 211 218 211 206 199 184 178 182 177
301 276 256 253 252 241 218 204 196 194 192 174 155 156 151 158 169 187 195 191 191 190 191 191 192 200 205 202 197 201 193 205 221 222 216 222 214 210 199 191 191 189 181
286 257 248 254 259 250 228 215 208 200 186 162 156 168 181 186 193 204 205 201 200 200 200 198 200 203 205 208 210 209 215 221 226 221 215 214 199 203 200 198 194 190 184
308 277 261 267 271 267 247 226 221 198 175 158 160 191 213 213 209 211 212 211 206 202 204 209 210 206 203 204 206 206 214 221 225 219 214 208 200 198 193 195 189 181 175
19 26 27 20 13 9 5 358 297 208 169 163 175 203 232 242 236 227 222 220 214 212 207 211 217 210 201 206 201 201 207 212 220 220 215 213 210 201 193 183 180 179 173
19 23 33 41 43 42 41 41 37 41 89 131 172 214 243 255 253 236 221 217 223 228 217 215 215 210 214 216 207 198 202 206 214 224 227 228 233 231 223 209 195 185 174
15 25 36 45 48 48 49 48 42 47 53 53 47 35 29 23 4 355 169 225 234 236 233 226 214 213 223 227 219 210 201 206 214 219 221 232 232 230 225 227 218 208 201
14 24 37 49 49 51 52 52 50 52 57 56 52 48 47 42 32 33 27 4 323 255 239 233 222 221 231 232 231 217 204 211 219 219 220 230 244 225 210 207 212 214 211
13 30 43 56 55 52 52 54 48 48 51 47 41 38 43 41 32 23 9 357 350 333 290 255 228 225 243 240 234 211 186 213 231 235 233 230 240 244 217 197 209 219 226
23 37 40 47 49 43 53 53 42 41 40 39 38 35 38 36 23 6 354 347 346 337 334 333 299 253 257 265 242 204 182 211 237 255 265 261 253 249 220 195 196 212 224
40 53 51 45 35 42 55 47 32 18 11 37 45 34 23 21 17 6 1 359 5 14 18 22 18 17 3 344 311 215 179 201 221 243 265 282 287 261 221 193 194 206 193
43 55 45 18 5 34 52 34 6 338 20 52 52 37 23 21 24 26 22 21 26 32 22 19 16 11 9 13 9 13 201 187 194 223 241 261 262 228 186 178 183 172 147
330 48 34 348 344 0 36 15 332 332 83 61 53 45 35 32 32 39 34 27 24 27 18 17 13 359 360 4 12 11 8 222 209 238 253 236 168 127 113 126 133 128 124
310 349 42 339 329 325 317 321 344 43 104 87 77 61 56 43 36 35 33 35 23 18 16 12 1 348 346 353 352 347 344 350 348 355 76 112 112 100 101 100 96 98 127
307 287 236 275 307 299 276 301 32 78 105 124 174 253 333 59 43 44 33 26 28 17 6 353 342 341 339 335 331 319 311 302 249 130 106 104 115 110 98 91 89 89 97
321 296 273 267 269 244 246 257 212 120 132 156 221 261 293 307 296 296 23 33 21 16 16 7 356 336 340 342 353 353 339 324 161 126 121 127 123 121 122 121 106 99 118